LAPAN-A2 (40931 NORAD) Tracking and Keplerian Element Data

This shows tracking and keplerian element data for the satellite.

Feedback or suggestion? Click here.




ElementValue
Catalog40931
NameLAPAN-A2
Epoch Orbit21786
Epoch Day281.80817167
Epoch Year2019
RAAN337.0048
Inclination6.0099
Eccentricity0.0013942
Argument of Perigee298.9597
Mean Anonmoly60.9124
Mean Motion14.76623211
Decay Rate1.348E-05
L11 40931U 15052B 19281.80817167 .00001348 00000-0 98719-4 0 9993
L22 40931 6.0099 337.0048 0013942 298.9597 60.9124 14.76623211217865

Live tracking and technical data element details for LAPAN-A2 (NORAD 40931). LAPAN-A2 can be tracked NOW for your location showing map with azimuth and elevation plus other details from your city location.

Track the satellite on the map from your city or location and see movement details for azimuth, elevation, latitude, longitude, range, height, and movement on the map or in text.







IsCatalogInMostPopularTable: catalog: 40931, numindb: 345
Update: records affected: 1



GetName: 40931 LAPAN-A2

Hit Count: updated at: Mon, 14 Oct 2019 01:00:50 GMT